Location: Les Martinières
(47.2667°N, 1.4410°E)
Time: 03:37:46
(UTC+00:00)

Cosmos 1271 Rocket - Pass Details

Date: 15 May 2026
Orbit: 421 x 447 km, 81.2° (Epoch: 8 June)

Event Time Altitude Azimuth Distance (km) Brightness Sun altitude
Exits shadow 22:06:23 20° 70° (ENE) 1,093 4.3 -19.7°
Drops below altitude 10° 22:08:12 10° 40° (NE) 1,556 5.4 -19.8°
Sets 22:10:33 0° 25° (NNE) 2,424 6.7 -20.0°
